{"data":{"norad_id":62925,"intl_designator":"2025-027U","name":"STARLINK-32920","alt_names":[],"object_type":"PAYLOAD","status":"ACTIVE","operator":null,"country":"US","launch_date":"2025-02-08","launch_site_code":"AFETR","launch_vehicle":null,"mission":null,"orbit_class":"UNKNOWN","rcs_meters":null,"size_class":null,"mass_kg":null,"dimensions":null,"purposes":["comms"],"wikipedia_slug":null,"has_3d_model":false,"image_url":null,"decayed_at":null,"tle_current":{"epoch":"2026-05-25T01:35:15.929376Z","epoch_age_seconds":69662,"freshness":"FRESH","line1":"1 62925U 25027U   26145.06615659  .00011134  00000+0  41336-3 0  9995","line2":"2 62925  42.9975  57.4817 0000554 272.5763  87.5025 15.27591026 73229","mean_motion":15.27591026,"eccentricity":5.54e-5,"inclination_deg":42.9975,"raan_deg":57.4817,"arg_perigee_deg":272.5763,"mean_anomaly_deg":87.5025,"bstar":0.00041336,"rev_number":7322,"period_min":94.266068305641,"perigee_km":482.635972547,"apogee_km":483.39618830831,"semimajor_km":6861.1530804277,"source":"CELESTRAK","updated_at":"2026-05-25T13:38:19.823203Z"}}}